WA7SB-7 Weather Reports


Display with metric or nautical units.
time (UTC)temp
F
wind
direction
speed
MPH
gust
MPH
rain 1hr
in
rain 24hr
in
rain mn
in
humidity
%
barometer
mb
20260904132032 54 254 0.0 2.0 0.09 1.89 0.74 97 1008.9
20260904131915 54 255 0.0 2.0 0.11 1.89 0.74 97 1008.9
20260904131517 54 236 0.0 2.0 0.14 1.89 0.74 97 1008.8
20260904131419 54 278 0.0 1.0 0.14 1.89 0.74 97 1008.8
20260904131021 54 278 0.0 1.0 0.15 1.88 0.73 97 1008.7
20260904130924 54 278 0.0 1.0 0.15 1.88 0.73 97 1008.7
20260904130527 54 278 0.0 1.0 0.17 1.88 0.73 97 1008.7
20260904130429 54 287 0.0 1.0 0.17 1.88 0.73 97 1008.6
20260904130024 54 116 0.0 1.0 0.17 1.94 0.72 97 1008.5
20260904125926 54 116 0.0 1.0 0.17 1.94 0.72 97 1008.5
20260904125528 54 116 0.0 1.0 0.18 1.94 0.72 97 1008.5
20260904125429 54 116 0.0 1.0 0.17 1.93 0.71 97 1008.5
20260904125031 54 116 0.0 1.0 0.18 1.93 0.71 97 1008.5
20260904124914 54 116 0.0 1.0 0.19 1.93 0.71 97 1008.5
20260904124517 54 301 0.0 2.0 0.18 1.92 0.70 96 1008.4
20260904124418 54 301 0.0 2.0 0.18 1.92 0.70 96 1008.4
20260904124021 54 309 0.0 2.0 0.18 1.92 0.70 97 1008.4
20260904123922 54 309 0.0 2.0 0.17 1.91 0.69 96 1008.3
20260904123525 54 190 0.0 2.0 0.18 1.91 0.69 97 1008.4
20260904123425 54 189 1.0 2.0 0.18 1.91 0.69 97 1008.4
20260904123025 54 301 0.0 3.0 0.17 1.90 0.68 97 1008.4
20260904122930 54 301 0.0 3.0 0.18 1.90 0.68 96 1008.4
20260904122529 54 302 1.0 3.0 0.18 1.89 0.67 97 1008.4
20260904122415 54 301 1.0 3.0 0.17 1.88 0.66 97 1008.4
20260904122013 54 251 0.0 2.0 0.15 1.86 0.64 97 1008.3
20260904121920 54 252 0.0 2.0 0.14 1.85 0.63 97 1008.3
20260904121520 54 292 0.0 2.0 0.11 1.82 0.60 96 1008.4
20260904121422 54 295 1.0 2.0 0.11 1.82 0.60 97 1008.3
20260904121025 54 73 0.0 2.0 0.09 1.80 0.58 97 1008.1
20260904120928 54 73 1.0 2.0 0.08 1.79 0.57 96 1008.1
20260904120531 54 288 0.0 2.0 0.07 1.78 0.56 96 1008.3
20260904120413 54 292 0.0 2.0 0.06 1.77 0.55 96 1008.3
20260904120027 54 306 0.0 2.0 0.06 1.83 0.55 96 1008.2
20260904115929 54 306 0.0 2.0 0.05 1.82 0.54 96 1008.2
20260904115530 54 287 0.0 1.0 0.05 1.82 0.54 96 1008.2
20260904115413 54 318 0.0 1.0 0.04 1.81 0.53 96 1008.2
20260904115015 54 333 0.0 1.0 0.05 1.81 0.53 97 1008.1
20260904114917 54 332 0.0 1.0 0.04 1.80 0.52 97 1008.1
20260904114551 54 337 0.0 1.0 0.04 1.80 0.52 96 1008.1
20260904114052 54 338 0.0 2.0 0.04 1.80 0.52 96 1008.0
20260904113518 54 345 0.0 2.0 0.04 1.79 0.51 97 1008.0
20260904113424 54 344 0.0 2.0 0.04 1.79 0.51 97 1008.0
20260904113024 54 321 0.0 1.0 0.04 1.78 0.50 97 1008.0
20260904112930 54 253 0.0 1.0 0.04 1.78 0.50 97 1008.0
20260904112526 54 253 0.0 1.0 0.03 1.77 0.49 96 1008.0
20260904112428 54 201 0.0 3.0 0.03 1.77 0.49 96 1007.9
20260904112030 54 202 0.0 3.0 0.03 1.77 0.49 96 1008.1
20260904111912 54 201 0.0 3.0 0.03 1.77 0.49 96 1008.0
20260904111516 54 327 0.0 2.0 0.03 1.77 0.49 96 1008.0
20260904111417 54 327 0.0 2.0 0.03 1.77 0.49 96 1008.0
20260904111020 54 292 0.0 2.0 0.03 1.77 0.49 96 1008.0
20260904110530 54 277 0.0 1.0 0.03 1.77 0.49 96 1007.9
20260904110430 54 277 0.0 1.0 0.03 1.77 0.49 96 1007.9
20260904110024 54 56 0.0 1.0 0.03 1.91 0.49 96 1008.0
20260904105926 54 66 0.0 1.0 0.03 1.91 0.49 96 1008.0
20260904105530 54 155 0.0 0.0 0.03 1.91 0.49 96 1008.0
20260904105431 54 155 0.0 0.0 0.03 1.91 0.49 96 1008.0
20260904105018 54 155 0.0 2.0 0.02 1.90 0.48 97 1008.0
20260904104918 54 154 0.0 2.0 0.02 1.90 0.48 97 1008.0
20260904104552 54 154 0.0 2.0 0.02 1.90 0.48 96 1008.0
20260904104021 54 85 0.0 1.0 0.01 1.89 0.47 97 1008.0
20260904103923 54 89 0.0 1.0 0.01 1.89 0.47 97 1007.9
20260904103530 54 91 0.0 1.0 0.01 1.89 0.47 97 1007.9
20260904103430 54 91 0.0 1.0 0.01 1.89 0.47 97 1007.9
20260904103029 54 290 0.0 1.0 0.00 1.88 0.46 96 1008.0
20260904102915 54 290 0.0 1.0 0.00 1.88 0.46 96 1008.0
20260904102516 54 290 0.0 0.0 0.00 1.88 0.46 96 1008.0
20260904102423 54 290 0.0 0.0 0.00 1.88 0.46 96 1008.0
20260904102025 54 291 0.0 0.0 0.02 1.88 0.46 96 1008.0
20260904101932 54 290 0.0 0.0 0.02 1.88 0.46 96 1008.1
20260904101532 54 290 0.0 0.0 0.02 1.88 0.46 96 1008.1
20260904101417 54 290 0.0 0.0 0.02 1.88 0.46 96 1008.0
20260904101021 54 291 0.0 0.0 0.02 1.88 0.46 96 1008.0
20260904100923 54 290 0.0 0.0 0.02 1.88 0.46 96 1008.0
20260904100526 54 290 0.0 0.0 0.02 1.88 0.46 96 1008.0
20260904100419 54 291 0.0 0.0 0.02 1.88 0.46 96 1008.1
20260904100015 54 291 0.0 0.0 0.02 1.88 0.46 96 1008.0
20260904095916 54 291 0.0 0.0 0.02 1.88 0.46 96 1008.0
20260904095520 54 290 0.0 0.0 0.02 1.88 0.46 96 1008.0
20260904095418 54 291 0.0 0.0 0.02 1.88 0.46 96 1008.0
20260904095023 54 291 0.0 0.0 0.02 1.88 0.46 96 1008.0
20260904094925 54 290 0.0 0.0 0.02 1.88 0.46 96 1008.0
20260904094532 54 290 0.0 0.0 0.02 1.88 0.46 96 1008.1
20260904094415 54 291 0.0 0.0 0.02 1.88 0.46 96 1008.1
20260904094021 54 291 0.0 0.0 0.02 1.88 0.46 96 1008.1
20260904093924 54 290 0.0 0.0 0.02 1.88 0.46 96 1008.0
20260904093530 54 290 0.0 0.0 0.02 1.88 0.46 96 1008.1
20260904093430 54 290 0.0 0.0 0.02 1.88 0.46 96 1008.1
20260904093032 54 291 0.0 1.0 0.02 1.88 0.46 96 1008.1
20260904092915 54 291 0.0 1.0 0.02 1.88 0.46 96 1008.1
20260904092517 54 290 0.0 1.0 0.02 1.88 0.46 96 1008.1
20260904092418 54 291 0.0 1.0 0.01 1.87 0.45 96 1008.2
20260904092021 54 291 0.0 0.0 0.00 1.86 0.44 96 1008.3
20260904091924 54 291 0.0 0.0 0.00 1.86 0.44 96 1008.2
20260904091526 54 291 0.0 0.0 0.00 1.86 0.44 96 1008.2
20260904091431 54 291 0.0 0.0 0.00 1.86 0.44 96 1008.2
20260904091029 54 291 0.0 1.0 0.00 1.86 0.44 96 1008.2
20260904090914 54 291 0.0 1.0 0.00 1.86 0.44 96 1008.2
20260904090518 54 291 0.0 1.0 0.00 1.86 0.44 96 1008.2
20260904090423 54 291 0.0 1.0 0.00 1.86 0.44 96 1008.2
20260904090033 54 291 0.0 1.0 0.00 1.86 0.44 96 1008.2
20260904085915 54 291 0.0 1.0 0.00 1.86 0.44 96 1008.1
20260904085518 54 21 0.0 1.0 0.00 1.86 0.44 96 1008.1
20260904085417 54 33 0.0 1.0 0.00 1.86 0.44 96 1008.1
20260904085019 54 33 0.0 1.0 0.00 1.86 0.44 96 1008.1
20260904084922 54 32 0.0 1.0 0.00 1.86 0.44 96 1008.1
20260904084525 54 119 0.0 1.0 0.01 1.86 0.44 96 1008.0
20260904084428 54 119 0.0 1.0 0.01 1.86 0.44 96 1008.1
20260904084030 54 119 0.0 1.0 0.02 1.86 0.44 96 1008.1
20260904083931 54 118 0.0 0.0 0.03 1.86 0.44 96 1008.1
20260904083534 54 118 0.0 1.0 0.04 1.86 0.44 96 1008.1
20260904083414 54 118 0.0 1.0 0.07 1.86 0.44 96 1008.1
20260904083018 54 118 0.0 2.0 0.07 1.86 0.44 96 1008.1
20260904082920 54 118 0.0 2.0 0.07 1.86 0.44 96 1008.1
20260904082523 54 291 0.0 2.0 0.09 1.86 0.44 96 1008.0
20260904082427 54 290 0.0 2.0 0.09 1.86 0.44 96 1008.1
20260904082029 54 293 0.0 0.0 0.12 1.86 0.44 96 1008.0
20260904081913 54 293 0.0 0.0 0.14 1.86 0.44 96 1008.0
20260904081517 54 293 0.0 1.0 0.23 1.86 0.44 96 1008.0
20260904081419 54 293 0.0 1.0 0.23 1.86 0.44 96 1008.0
20260904081022 55 293 0.0 1.0 0.30 1.86 0.44 96 1008.0
20260904080925 55 293 0.0 1.0 0.31 1.86 0.44 96 1008.1
20260904080530 55 271 0.0 2.0 0.41 1.86 0.44 96 1008.0
20260904080431 55 271 0.0 2.0 0.42 1.86 0.44 96 1008.0
20260904080024 55 270 1.0 2.0 0.44 1.86 0.44 96 1008.1
20260904075926 55 270 1.0 2.0 0.45 1.86 0.44 96 1008.1
20260904075524 55 348 0.0 3.0 0.46 1.86 0.44 96 1008.0
20260904075431 55 303 0.0 3.0 0.46 1.86 0.44 96 1008.0
20260904075029 55 250 0.0 3.0 0.46 1.86 0.44 96 1008.0
20260904074916 55 250 0.0 3.0 0.47 1.86 0.44 96 1008.0
20260904074516 55 291 0.0 3.0 0.46 1.85 0.43 96 1007.9
20260904074423 55 295 0.0 3.0 0.45 1.84 0.42 96 1007.9
20260904074021 55 167 0.0 1.0 0.45 1.83 0.41 96 1007.9
20260904073923 55 167 0.0 1.0 0.45 1.83 0.41 96 1007.9
20260904073527 55 300 0.0 1.0 0.44 1.81 0.39 96 1007.9
20260904073427 55 300 0.0 1.0 0.43 1.79 0.37 96 1008.0
20260904073029 55 310 0.0 1.0 0.44 1.79 0.37 96 1007.9
20260904072931 55 337 0.0 1.0 0.45 1.79 0.37 96 1007.9
20260904072530 55 337 0.0 1.0 0.45 1.77 0.35 96 1007.9
20260904072431 55 338 0.0 1.0 0.45 1.76 0.34 96 1007.9
20260904072031 55 339 0.0 1.0 0.44 1.73 0.31 96 1007.9
20260904071915 55 339 0.0 1.0 0.44 1.72 0.30 96 1007.8
20260904071517 55 256 0.0 1.0 0.40 1.63 0.21 96 1007.7
20260904071417 55 257 0.0 1.0 0.38 1.61 0.19 96 1007.8
20260904071019 55 257 0.0 1.0 0.33 1.55 0.13 96 1007.7
20260904070921 55 257 0.0 1.0 0.32 1.53 0.11 96 1007.7
20260904070527 55 257 0.0 1.0 0.25 1.44 0.02 96 1007.8
20260904070429 55 257 0.0 1.0 0.24 1.43 0.01 96 1007.7
20260904070025 55 257 0.0 1.0 0.23 1.41 1.41 96 1007.5
20260904065920 55 257 0.0 1.0 0.23 1.41 1.41 96 1007.5
20260904065522 55 257 0.0 1.0 0.23 1.40 1.40 96 1007.6
20260904065424 55 257 0.0 1.0 0.23 1.40 1.40 96 1007.5
20260904065026 55 257 0.0 2.0 0.23 1.39 1.39 96 1007.5
20260904064930 55 257 0.0 2.0 0.23 1.39 1.39 96 1007.5
20260904064528 55 276 0.0 2.0 0.24 1.39 1.39 96 1007.3
20260904064416 55 276 0.0 2.0 0.23 1.38 1.38 96 1007.4
20260904064015 55 249 0.0 1.0 0.23 1.38 1.38 96 1007.3
20260904063923 55 249 0.0 1.0 0.23 1.38 1.38 96 1007.3
20260904063523 55 293 0.0 1.0 0.21 1.36 1.36 96 1007.3
20260904063429 55 293 0.0 1.0 0.21 1.36 1.36 96 1007.3
20260904063026 55 62 0.0 1.0 0.19 1.34 1.34 96 1007.2
20260904062927 55 62 0.0 1.0 0.19 1.34 1.34 96 1007.3
20260904062530 55 62 0.0 3.0 0.16 1.31 1.31 96 1007.3
20260904062429 55 62 0.0 3.0 0.16 1.31 1.31 96 1007.2
20260904062031 55 63 1.0 3.0 0.13 1.28 1.29 96 1007.3
20260904061915 55 295 0.0 2.0 0.13 1.27 1.27 96 1007.4
20260904061519 55 285 0.0 1.0 0.09 1.23 1.23 96 1007.3
20260904061421 55 285 0.0 1.0 0.09 1.23 1.23 96 1007.3
20260904061023 55 269 0.0 1.0 0.07 1.21 1.21 96 1007.4
20260904060926 55 270 0.0 1.0 0.07 1.21 1.21 96 1007.4
20260904060530 55 270 0.0 1.0 0.05 1.19 1.19 96 1007.4
20260904060431 55 270 0.0 1.0 0.04 1.18 1.18 96 1007.3
20260904060026 55 268 0.0 1.0 0.04 1.18 1.18 96 1007.4
20260904055929 55 288 0.0 1.0 0.03 1.17 1.17 96 1007.4
20260904055528 55 288 0.0 1.0 0.03 1.17 1.17 96 1007.4
20260904055430 55 288 0.0 1.0 0.03 1.17 1.17 96 1007.4
20260904055030 55 288 0.0 1.0 0.02 1.16 1.16 96 1007.4
20260904054914 55 288 0.0 1.0 0.02 1.16 1.16 96 1007.4
20260904054515 55 289 0.0 1.0 0.01 1.15 1.15 96 1007.5
20260904054417 55 289 0.0 1.0 0.01 1.15 1.15 96 1007.5
20260904054020 55 289 0.0 1.0 0.01 1.15 1.15 96 1007.6
20260904053920 55 289 0.0 1.0 0.01 1.15 1.15 96 1007.6
20260904053522 55 289 0.0 1.0 0.01 1.15 1.15 96 1007.7
20260904053423 55 294 0.0 1.0 0.01 1.15 1.15 96 1007.6
20260904053027 55 294 0.0 1.0 0.01 1.15 1.15 96 1007.7
20260904052929 55 294 0.0 1.0 0.01 1.15 1.15 96 1007.7
20260904052513 55 293 0.0 1.0 0.01 1.15 1.15 95 1007.8
20260904052416 55 293 0.0 1.0 0.01 1.15 1.15 95 1007.8
20260904052013 55 293 0.0 1.0 0.01 1.15 1.15 95 1007.9
20260904051920 55 109 0.0 1.0 0.00 1.14 1.14 95 1007.9
20260904051520 55 110 0.0 1.0 0.00 1.14 1.14 95 1007.8
20260904051427 55 110 0.0 1.0 0.00 1.14 1.14 95 1007.8
20260904051027 55 290 0.0 1.0 0.01 1.14 1.14 95 1008.0
20260904050915 55 290 0.0 1.0 0.01 1.14 1.14 95 1007.9
20260904050517 55 290 0.0 1.0 0.02 1.14 1.14 95 1007.9
20260904050418 55 290 0.0 1.0 0.02 1.14 1.14 95 1008.0
20260904050013 55 290 0.0 1.0 0.02 1.14 1.14 95 1007.9
20260904045917 55 290 0.0 1.0 0.02 1.14 1.14 95 1008.0
20260904045520 55 290 0.0 1.0 0.02 1.14 1.14 95 1008.0
20260904045423 55 290 0.0 0.0 0.02 1.14 1.14 95 1008.0
20260904045029 55 290 0.0 0.0 0.02 1.14 1.14 95 1008.0
20260904044913 55 290 0.0 1.0 0.02 1.14 1.14 95 1007.9
20260904044521 55 290 0.0 1.0 0.02 1.14 1.14 95 1007.9
20260904044423 55 290 0.0 1.0 0.02 1.14 1.14 95 1007.9
20260904044028 55 290 0.0 1.0 0.02 1.14 1.14 95 1007.9
20260904043929 55 290 0.0 1.0 0.02 1.14 1.14 95 1008.0
20260904043532 55 290 0.0 1.0 0.02 1.14 1.14 95 1008.0
20260904043431 55 290 0.0 1.0 0.02 1.14 1.14 95 1008.0
20260904043013 56 290 0.0 0.0 0.02 1.14 1.14 95 1008.0
20260904042916 56 290 0.0 0.0 0.02 1.14 1.14 95 1008.1
20260904042521 56 290 0.0 1.0 0.02 1.14 1.14 95 1008.1
20260904042423 56 290 0.0 1.0 0.02 1.14 1.14 95 1008.1
20260904042028 56 290 0.0 1.0 0.02 1.14 1.14 95 1008.1
20260904041930 56 290 0.0 1.0 0.02 1.14 1.14 95 1008.1
20260904041532 56 290 0.0 1.0 0.02 1.14 1.14 95 1008.1
20260904041414 56 258 0.0 1.0 0.02 1.14 1.14 95 1008.1
20260904041018 56 253 0.0 1.0 0.02 1.13 1.13 95 1008.2
20260904040918 56 253 0.0 1.0 0.03 1.13 1.13 95 1008.2
20260904040553 56 253 0.0 2.0 0.02 1.12 1.12 95 1008.2
20260904040019 56 252 1.0 3.0 0.02 1.26 1.12 95 1008.2
20260904035920 56 345 0.0 3.0 0.02 1.26 1.12 95 1008.2
20260904035552 56 357 0.0 4.0 0.02 1.26 1.12 95 1008.3
20260904035022 56 324 1.0 4.0 0.02 1.26 1.12 95 1008.3
20260904034924 56 22 1.0 4.0 0.02 1.26 1.12 95 1008.3
20260904034525 56 20 0.0 2.0 0.02 1.26 1.12 95 1008.2
20260904034426 56 21 0.0 2.0 0.02 1.26 1.12 95 1008.2
20260904034026 56 20 1.0 2.0 0.02 1.26 1.12 95 1008.1
20260904033929 56 20 1.0 2.0 0.02 1.26 1.12 95 1008.2
20260904033516 56 353 0.0 2.0 0.02 1.26 1.12 95 1008.1
20260904033416 56 359 0.0 2.0 0.03 1.26 1.12 95 1008.1
20260904033019 56 57 0.0 3.0 0.04 1.26 1.12 95 1008.1
20260904032920 56 57 1.0 3.0 0.04 1.26 1.12 95 1008.1
20260904032515 56 311 1.0 3.0 0.06 1.26 1.12 95 1008.0
20260904032423 56 15 1.0 3.0 0.06 1.26 1.12 95 1008.0
20260904032020 56 334 1.0 6.0 0.12 1.26 1.12 95 1007.9
20260904031926 56 91 1.0 7.0 0.12 1.26 1.12 95 1007.9
20260904031524 56 88 2.0 9.0 0.12 1.26 1.12 94 1008.0
20260904031427 56 279 2.0 9.0 0.12 1.26 1.12 95 1008.1
20260904031029 56 67 2.0 9.0 0.19 1.25 1.11 95 1008.0
20260904030912 56 283 1.0 8.0 0.18 1.24 1.10 95 1008.0
20260904030515 56 323 2.0 8.0 0.21 1.24 1.10 95 1008.1
20260904030417 56 254 2.0 9.0 0.21 1.24 1.10 95 1008.1
20260904030029 56 43 2.0 9.0 0.22 1.25 1.10 95 1008.1
20260904025929 56 153 2.0 9.0 0.22 1.25 1.10 95 1008.1
20260904025529 56 280 2.0 8.0 0.25 1.25 1.10 95 1008.2
20260904025412 56 338 3.0 8.0 0.27 1.25 1.10 95 1008.1
20260904025014 56 39 3.0 6.0 0.28 1.25 1.10 95 1008.1
20260904024915 56 1 3.0 6.0 0.29 1.25 1.10 95 1008.1
20260904024518 56 318 1.0 4.0 0.31 1.25 1.10 95 1008.1
20260904024419 56 59 2.0 4.0 0.31 1.25 1.10 95 1008.1
20260904024022 56 287 1.0 6.0 0.35 1.25 1.10 95 1008.1
20260904023924 56 89 1.0 6.0 0.36 1.25 1.10 95 1008.1
20260904023526 56 266 2.0 6.0 0.51 1.25 1.10 95 1008.2
20260904023427 56 134 3.0 6.0 0.51 1.24 1.09 95 1008.2
20260904023029 56 267 1.0 3.0 0.52 1.23 1.08 95 1008.3
20260904022913 56 347 0.0 3.0 0.52 1.22 1.07 95 1008.4
20260904022516 56 60 1.0 3.0 0.52 1.21 1.06 95 1008.1
20260904022420 56 81 1.0 3.0 0.52 1.21 1.06 95 1008.1
20260904022023 56 31 0.0 2.0 0.46 1.15 1.00 95 1008.0
20260904021926 56 39 1.0 2.0 0.46 1.15 1.00 95 1008.1
20260904021528 56 13 0.0 3.0 0.46 1.15 1.00 94 1008.1
20260904021431 56 14 0.0 3.0 0.46 1.15 1.00 94 1008.2
20260904021013 56 296 1.0 10.0 0.38 1.07 0.92 94 1008.2
20260904020915 56 304 1.0 10.0 0.38 1.07 0.92 94 1008.2
20260904020515 56 309 3.0 10.0 0.35 1.04 0.89 94 1008.3
20260904020421 56 101 4.0 10.0 0.35 1.04 0.89 94 1008.3
20260904020030 56 353 1.0 7.0 0.34 1.03 0.88 94 1008.3
20260904015932 56 315 2.0 7.0 0.33 1.02 0.87 94 1008.4
20260904015532 56 311 1.0 7.0 0.29 0.98 0.83 94 1008.4
20260904015414 56 316 2.0 7.0 0.29 0.98 0.83 94 1008.4
20260904015015 56 16 2.0 8.0 0.28 0.97 0.82 93 1008.4
20260904014917 56 319 1.0 8.0 0.27 0.96 0.81 93 1008.5
20260904014517 56 91 3.0 8.0 0.26 0.94 0.79 92 1008.5
20260904014417 56 265 2.0 8.0 0.24 0.92 0.77 92 1008.5
20260904014016 57 175 3.0 8.0 0.21 0.89 0.74 92 1008.3
20260904013918 57 272 3.0 8.0 0.20 0.88 0.73 92 1008.2
20260904013523 57 217 1.0 7.0 0.05 0.73 0.58 92 1008.3
20260904013424 57 69 1.0 5.0 0.05 0.73 0.58 91 1008.3
20260904013026 57 355 2.0 5.0 0.03 0.71 0.56 91 1008.3
20260904012929 57 96 1.0 5.0 0.02 0.70 0.55 91 1008.3
20260904012531 58 72 2.0 6.0 0.01 0.69 0.54 91 1008.3
20260904012432 58 54 2.0 6.0 0.01 0.69 0.54 91 1008.3
20260904012031 58 315 2.0 8.0 0.01 0.69 0.54 90 1008.3
20260904011913 58 321 2.0 8.0 0.01 0.69 0.54 90 1008.4
20260904011515 58 72 2.0 8.0 0.01 0.69 0.54 89 1008.3
20260904011416 58 72 2.0 6.0 0.01 0.69 0.54 89 1008.3
20260904011015 58 111 1.0 6.0 0.01 0.69 0.54 90 1008.3
20260904010917 58 153 2.0 6.0 0.01 0.69 0.54 90 1008.2
20260904010521 58 50 3.0 6.0 0.01 0.69 0.54 89 1008.2
20260904010422 58 37 2.0 6.0 0.01 0.69 0.54 89 1008.3
20260904010032 58 123 2.0 6.0 0.01 0.69 0.54 90 1008.2
20260904005917 58 157 3.0 6.0 0.01 0.69 0.54 89 1008.3
20260904005515 58 158 2.0 7.0 0.01 0.69 0.54 89 1008.3
20260904005420 58 264 2.0 7.0 0.01 0.69 0.54 89 1008.3
20260904005021 58 300 3.0 8.0 0.01 0.69 0.54 88 1008.2
20260904004923 58 82 2.0 8.0 0.01 0.69 0.54 88 1008.4
20260904004527 58 332 1.0 8.0 0.00 0.68 0.53 88 1008.4
20260904004412 58 99 2.0 8.0 0.00 0.68 0.53 87 1008.4
20260904004014 58 259 3.0 9.0 0.00 0.68 0.53 87 1008.4
20260904003917 58 353 3.0 9.0 0.00 0.68 0.53 87 1008.3
20260904003531 58 150 3.0 9.0 0.00 0.68 0.53 88 1008.2
20260904003430 58 319 2.0 9.0 0.01 0.68 0.53 88 1008.4
20260904003031 58 306 4.0 8.0 0.01 0.68 0.53 89 1008.3
20260904002913 58 51 2.0 8.0 0.01 0.68 0.53 89 1008.4
20260904002519 58 89 2.0 7.0 0.02 0.68 0.53 90 1008.3
20260904002419 58 211 1.0 5.0 0.02 0.68 0.53 90 1008.3
20260904002022 58 113 2.0 6.0 0.02 0.68 0.53 91 1008.2
20260904001926 58 263 1.0 6.0 0.02 0.68 0.53 91 1008.3
20260904001528 58 91 2.0 6.0 0.02 0.68 0.53 90 1008.2
20260904001429 58 75 2.0 7.0 0.02 0.68 0.53 91 1008.3
20260904001031 58 179 1.0 7.0 0.02 0.68 0.53 91 1008.3
20260904000913 58 137 1.0 7.0 0.02 0.68 0.53 91 1008.3
20260904000519 58 32 2.0 7.0 0.02 0.68 0.53 90 1008.3
20260904000419 58 317 3.0 7.0 0.02 0.68 0.53 90 1008.3
20260904000033 58 47 2.0 7.0 0.02 0.68 0.53 91 1008.3
20260903235917 58 335 1.0 9.0 0.02 0.68 0.53 91 1008.3
20260903235521 58 282 1.0 9.0 0.02 0.68 0.53 91 1008.3
20260903235424 58 227 1.0 9.0 0.02 0.68 0.53 91 1008.3
20260903235026 58 160 3.0 9.0 0.02 0.68 0.53 90 1008.5
20260903234927 58 302 2.0 8.0 0.02 0.68 0.53 90 1008.4
20260903234524 58 43 2.0 8.0 0.02 0.68 0.53 90 1008.5
20260903234428 58 230 2.0 8.0 0.02 0.68 0.53 90 1008.5
20260903234026 58 96 2.0 9.0 0.02 0.68 0.53 90 1008.5
20260903233913 58 96 1.0 9.0 0.02 0.68 0.53 89 1008.5
20260903233515 58 82 4.0 9.0 0.01 0.67 0.52 89 1008.6
20260903233420 58 288 2.0 8.0 0.01 0.67 0.52 88 1008.6
20260903233019 59 210 2.0 16.0 0.01 0.67 0.52 87 1008.5
20260903232921 59 230 3.0 16.0 0.01 0.67 0.52 87 1008.5
20260903232522 59 96 4.0 16.0 0.00 0.66 0.51 87 1008.6
20260903232424 59 120 3.0 16.0 0.00 0.66 0.51 88 1008.7
20260903232025 59 314 5.0 13.0 0.00 0.66 0.51 87 1008.5
20260903231926 59 162 4.0 13.0 0.00 0.66 0.51 87 1008.6
20260903231530 59 33 4.0 9.0 0.00 0.66 0.51 87 1008.7
20260903231414 59 49 2.0 7.0 0.00 0.66 0.51 87 1008.7
20260903231017 59 272 3.0 14.0 0.00 0.66 0.51 87 1008.7
20260903230920 59 101 3.0 14.0 0.00 0.66 0.51 86 1008.7
20260903230523 59 221 2.0 14.0 0.00 0.66 0.51 86 1008.6
20260903230425 59 325 2.0 14.0 0.00 0.66 0.51 86 1008.6
20260903230017 60 239 2.0 12.0 0.00 0.68 0.51 88 1008.7
20260903225919 60 106 2.0 12.0 0.00 0.68 0.51 88 1008.7
20260903225525 59 262 2.0 12.0 0.00 0.68 0.51 87 1008.6
20260903225427 59 25 3.0 12.0 0.00 0.68 0.51 88 1008.8
20260903225029 59 345 3.0 9.0 0.00 0.68 0.51 88 1008.7
20260903224931 59 21 2.0 9.0 0.00 0.68 0.51 88 1008.8
20260903224533 59 300 3.0 10.0 0.00 0.68 0.51 88 1008.7
20260903224415 59 92 4.0 10.0 0.00 0.68 0.51 88 1008.7
20260903224017 59 28 3.0 11.0 0.00 0.68 0.51 89 1008.7
20260903223919 59 199 4.0 11.0 0.00 0.68 0.51 88 1008.7
20260903223522 59 207 4.0 11.0 0.00 0.68 0.51 88 1008.8
20260903223424 59 233 4.0 11.0 0.00 0.68 0.51 88 1008.6
20260903223027 59 203 2.0 7.0 0.00 0.68 0.51 89 1008.7
20260903222930 59 326 3.0 8.0 0.00 0.68 0.51 88 1008.8
20260903222515 59 109 2.0 12.0 0.00 0.68 0.51 89 1008.7
20260903222418 59 359 3.0 12.0 0.00 0.68 0.51 89 1008.8
20260903222015 59 316 3.0 12.0 0.00 0.68 0.51 90 1008.7
20260903221919 59 51 3.0 12.0 0.00 0.68 0.51 90 1008.7
20260903221517 59 63 3.0 12.0 0.00 0.68 0.51 90 1008.8
20260903221420 59 68 3.0 12.0 0.00 0.68 0.51 90 1008.8
20260903221019 59 54 2.0 9.0 0.00 0.68 0.51 91 1008.6
20260903220919 59 62 3.0 9.0 0.00 0.68 0.51 90 1008.9
20260903220523 59 339 3.0 9.0 0.00 0.68 0.51 90 1008.8
20260903220426 59 73 2.0 9.0 0.00 0.68 0.51 90 1008.8
20260903220023 59 224 3.0 9.0 0.00 0.69 0.51 90 1008.9
20260903215927 59 81 4.0 10.0 0.00 0.69 0.51 89 1008.8
20260903215528 59 290 1.0 10.0 0.00 0.69 0.51 90 1008.8
20260903215429 59 54 2.0 10.0 0.00 0.69 0.51 90 1008.8
20260903215030 60 192 3.0 10.0 0.00 0.69 0.51 89 1008.7
20260903214912 60 314 3.0 9.0 0.00 0.69 0.51 89 1008.8
20260903214514 60 113 2.0 13.0 0.00 0.69 0.51 89 1008.9
20260903214415 60 259 3.0 13.0 0.00 0.69 0.51 89 1008.9
20260903214019 60 97 2.0 13.0 0.00 0.69 0.51 89 1009.0
20260903213920 60 115 3.0 13.0 0.00 0.69 0.51 88 1009.0
20260903213525 60 263 3.0 8.0 0.00 0.69 0.51 89 1009.0
20260903213426 60 58 3.0 8.0 0.00 0.69 0.51 89 1008.9
20260903213031 60 289 3.0 12.0 0.00 0.69 0.51 88 1009.0
20260903212913 60 229 3.0 12.0 0.00 0.69 0.51 88 1009.0
20260903212517 60 92 2.0 9.0 0.01 0.69 0.51 89 1008.9
20260903212420 60 75 2.0 9.0 0.01 0.69 0.51 89 1008.9
20260903212023 60 176 1.0 9.0 0.01 0.69 0.51 89 1009.0
20260903211924 60 206 3.0 9.0 0.01 0.69 0.51 90 1008.9
20260903211527 60 349 1.0 8.0 0.01 0.69 0.51 90 1008.9
20260903211429 60 22 2.0 8.0 0.01 0.69 0.51 90 1008.8
20260903211026 60 53 1.0 8.0 0.01 0.69 0.51 90 1009.0
20260903210930 59 90 2.0 8.0 0.01 0.69 0.51 89 1008.9
20260903210532 60 359 2.0 7.0 0.01 0.69 0.51 89 1009.0
20260903210418 60 282 2.0 9.0 0.01 0.69 0.51 89 1009.1
20260903210017 60 302 3.0 11.0 0.01 0.82 0.51 89 1009.0
20260903205533 60 33 4.0 11.0 0.01 0.82 0.51 88 1008.9
20260903205414 60 328 4.0 11.0 0.01 0.82 0.51 89 1008.9
20260903205017 60 327 2.0 9.0 0.01 0.82 0.51 90 1009.0
20260903204919 60 167 2.0 9.0 0.01 0.82 0.51 90 1008.9
20260903204519 59 92 4.0 9.0 0.01 0.82 0.51 90 1008.9
20260903204419 59 144 3.0 9.0 0.01 0.82 0.51 90 1008.9
20260903204022 59 250 3.0 9.0 0.01 0.82 0.51 92 1009.0
20260903203926 59 87 4.0 9.0 0.01 0.82 0.51 92 1008.9
20260903203531 59 307 3.0 9.0 0.01 0.82 0.51 91 1009.0
20260903203429 59 282 2.0 9.0 0.01 0.82 0.51 91 1008.9
20260903203026 59 37 1.0 11.0 0.01 0.82 0.51 91 1008.9
20260903202927 59 269 1.0 11.0 0.01 0.82 0.51 91 1008.9
20260903202528 59 267 3.0 11.0 0.00 0.81 0.50 90 1008.9
20260903202429 59 321 4.0 11.0 0.00 0.81 0.50 90 1009.1
20260903202029 59 247 3.0 7.0 0.00 0.81 0.50 92 1008.8
20260903201928 59 302 2.0 5.0 0.00 0.81 0.50 93 1008.9
20260903201532 59 78 1.0 10.0 0.00 0.81 0.50 91 1009.1
20260903201414 58 302 2.0 10.0 0.00 0.81 0.50 91 1008.9
20260903201015 59 27 3.0 10.0 0.00 0.81 0.50 90 1009.0
20260903200936 59 351 3.0 10.0 0.00 0.81 0.50 91 1009.0
20260903200534 59 309 1.0 5.0 0.00 0.81 0.50 94 1009.1
20260903200417 58 293 2.0 7.0 0.00 0.81 0.50 94 1009.2
20260903200026 57 249 2.0 7.0 0.00 0.90 0.50 93 1009.2
20260903195928 57 276 1.0 7.0 0.00 0.90 0.50 93 1009.3
20260903195530 57 115 1.0 6.0 0.00 0.90 0.50 93 1009.2
20260903195432 57 115 1.0 6.0 0.00 0.90 0.50 93 1009.3
20260903195017 56 356 1.0 9.0 0.00 0.90 0.50 94 1009.2
20260903194920 56 313 1.0 9.0 0.00 0.90 0.50 94 1009.2
20260903194523 56 281 3.0 9.0 0.00 0.90 0.50 94 1009.3
20260903194425 56 30 2.0 8.0 0.00 0.90 0.50 94 1009.3
20260903194029 56 228 1.0 7.0 0.00 0.90 0.50 94 1009.3
20260903193932 56 16 1.0 7.0 0.00 0.90 0.50 94 1009.3
20260903193517 56 253 2.0 8.0 0.00 0.90 0.50 93 1009.3
20260903193415 56 85 2.0 8.0 0.00 0.90 0.50 94 1009.3
20260903193017 56 235 2.0 8.0 0.01 0.90 0.50 94 1009.4
20260903192916 56 73 1.0 8.0 0.01 0.90 0.50 94 1009.4
20260903192519 56 281 1.0 5.0 0.01 0.90 0.50 94 1009.5
20260903192419 56 321 2.0 5.0 0.01 0.90 0.50 94 1009.5
20260903192021 56 329 1.0 10.0 0.01 0.90 0.50 94 1009.5
20260903191920 56 304 1.0 10.0 0.01 0.90 0.50 94 1009.5
20260903191521 56 96 2.0 10.0 0.01 0.90 0.50 94 1009.5
20260903191421 56 304 1.0 6.0 0.01 0.90 0.50 94 1009.4
20260903191023 55 118 2.0 6.0 0.01 0.90 0.50 94 1009.5
20260903190923 55 312 2.0 6.0 0.01 0.90 0.50 94 1009.4
20260903190524 55 40 1.0 5.0 0.01 0.90 0.50 95 1009.5
20260903190417 55 21 2.0 7.0 0.01 0.90 0.50 95 1009.6
20260903190026 55 117 2.0 7.0 0.01 1.05 0.50 94 1009.5
20260903185930 55 63 2.0 9.0 0.01 1.05 0.50 94 1009.5
20260903185527 55 53 2.0 9.0 0.01 1.05 0.50 94 1009.5
20260903185427 55 56 2.0 9.0 0.01 1.05 0.50 94 1009.4
20260903185027 55 57 1.0 6.0 0.01 1.05 0.50 94 1009.5
20260903184928 55 343 2.0 6.0 0.01 1.05 0.50 95 1009.4
20260903184529 55 326 2.0 7.0 0.01 1.05 0.50 94 1009.6
20260903184429 55 72 1.0 7.0 0.01 1.05 0.50 94 1009.7
20260903184030 55 105 1.0 7.0 0.01 1.05 0.50 94 1009.7
20260903183931 55 64 1.0 7.0 0.01 1.05 0.50 94 1009.8
20260903183534 55 68 2.0 7.0 0.01 1.05 0.50 93 1009.7
20260903183416 55 44 2.0 7.0 0.01 1.05 0.50 93 1009.8
20260903183020 55 316 2.0 7.0 0.00 1.04 0.49 94 1009.8
20260903182923 55 269 2.0 7.0 0.00 1.04 0.49 94 1009.8
20260903182527 55 314 2.0 7.0 0.00 1.04 0.49 94 1009.7
20260903182431 55 79 2.0 7.0 0.00 1.04 0.49 94 1009.6
20260903182033 55 23 1.0 7.0 0.00 1.04 0.49 94 1009.6
20260903181914 55 122 1.0 7.0 0.00 1.04 0.49 94 1009.7
20260903181517 55 50 2.0 8.0 0.02 1.04 0.49 94 1009.6
20260903181418 55 258 1.0 8.0 0.02 1.04 0.49 94 1009.5
20260903181019 55 105 2.0 8.0 0.03 1.04 0.49 94 1009.6
20260903180918 55 358 3.0 8.0 0.04 1.04 0.49 94 1009.6
20260903180521 55 75 3.0 6.0 0.07 1.04 0.49 94 1009.7
20260903180419 56 41 2.0 6.0 0.09 1.04 0.49 94 1009.7
20260903180032 56 293 1.0 6.0 0.15 1.13 0.49 94 1009.6
20260903175913 56 309 2.0 9.0 0.15 1.13 0.49 94 1009.5
20260903175518 56 240 3.0 9.0 0.17 1.13 0.49 95 1009.5
20260903175419 56 186 2.0 9.0 0.17 1.13 0.49 95 1009.5
20260903175017 56 50 2.0 7.0 0.17 1.13 0.49 95 1009.5
20260903174920 56 202 2.0 6.0 0.17 1.13 0.49 95 1009.5
20260903174519 56 50 1.0 8.0 0.17 1.13 0.49 95 1009.5
20260903174421 56 99 2.0 8.0 0.17 1.13 0.49 95 1009.5
20260903174018 56 267 1.0 8.0 0.17 1.13 0.49 95 1009.6
20260903173919 56 12 1.0 8.0 0.17 1.13 0.49 95 1009.5
20260903173523 56 79 2.0 6.0 0.17 1.13 0.49 96 1009.6
20260903173424 56 222 2.0 6.0 0.17 1.13 0.49 96 1009.6
20260903173028 55 91 1.0 3.0 0.18 1.13 0.49 96 1009.7
20260903172930 55 276 1.0 3.0 0.18 1.13 0.49 95 1009.7
20260903172533 55 23 1.0 3.0 0.19 1.13 0.49 95 1009.7
20260903172413 54 123 1.0 3.0 0.19 1.13 0.49 95 1009.7
20260903172017 54 84 1.0 7.0 0.19 1.13 0.49 94 1009.8
20260903171917 54 89 1.0 7.0 0.19 1.13 0.49 94 1009.7
20260903171519 54 296 2.0 7.0 0.17 1.11 0.47 93 1009.7
20260903171422 54 105 2.0 7.0 0.17 1.11 0.47 93 1009.7
20260903171026 55 283 1.0 6.0 0.16 1.10 0.46 93 1009.7
20260903170927 55 41 1.0 6.0 0.15 1.09 0.45 93 1009.7
20260903170531 56 219 3.0 7.0 0.10 1.04 0.40 93 1009.7
20260903170430 56 349 3.0 7.0 0.08 1.02 0.38 93 1009.6
20260903170025 56 70 1.0 8.0 0.04 1.16 0.34 94 1009.5
20260903165926 56 334 1.0 8.0 0.04 1.16 0.34 94 1009.4
20260903165528 56 5 2.0 8.0 0.02 1.14 0.32 94 1009.5
20260903165430 56 54 2.0 8.0 0.02 1.14 0.32 94 1009.5
20260903165030 57 58 2.0 9.0 0.02 1.14 0.32 94 1009.5
20260903164912 57 232 3.0 9.0 0.02 1.14 0.32 94 1009.4
20260903164516 57 349 2.0 10.0 0.02 1.14 0.32 94 1009.4
20260903164419 57 72 2.0 10.0 0.02 1.14 0.32 94 1009.4
20260903164021 57 30 3.0 10.0 0.02 1.14 0.32 94 1009.4
20260903163923 57 277 3.0 10.0 0.02 1.14 0.32 94 1009.4
20260903163522 57 106 3.0 10.0 0.02 1.14 0.32 94 1009.4
20260903163425 57 109 2.0 7.0 0.02 1.14 0.32 94 1009.3
20260903163022 57 347 2.0 9.0 0.01 1.13 0.31 94 1009.3
20260903162928 57 51 1.0 9.0 0.01 1.13 0.31 94 1009.3
20260903162526 57 165 3.0 9.0 0.00 1.12 0.30 94 1009.3
20260903162428 57 307 3.0 9.0 0.00 1.12 0.30 94 1009.3
20260903162031 57 11 3.0 12.0 0.00 1.12 0.30 94 1009.2
20260903161914 57 259 2.0 12.0 0.00 1.12 0.30 94 1009.2
20260903161518 57 43 4.0 12.0 0.00 1.12 0.30 94 1009.4
20260903161420 57 94 3.0 12.0 0.00 1.12 0.30 94 1009.4
20260903161021 57 33 3.0 8.0 0.00 1.12 0.30 94 1009.3
20260903160922 57 309 3.0 8.0 0.00 1.12 0.30 94 1009.2
20260903160524 57 310 3.0 9.0 0.00 1.12 0.30 95 1009.4
20260903160425 57 335 3.0 9.0 0.00 1.12 0.30 95 1009.5
20260903160020 57 184 2.0 9.0 0.00 1.19 0.30 94 1009.4
20260903155923 57 70 3.0 9.0 0.00 1.19 0.30 94 1009.3
20260903155526 57 238 2.0 12.0 0.00 1.19 0.30 94 1009.3
20260903155428 57 272 2.0 12.0 0.00 1.19 0.30 94 1009.4
20260903155033 57 268 4.0 12.0 0.00 1.19 0.30 94 1009.4
20260903154915 57 85 3.0 12.0 0.00 1.19 0.30 94 1009.3
20260903154517 57 61 2.0 8.0 0.00 1.19 0.30 94 1009.4
20260903154418 57 256 2.0 8.0 0.00 1.19 0.30 94 1009.5
20260903154020 57 39 3.0 8.0 0.00 1.19 0.30 94 1009.3
20260903153919 56 40 2.0 7.0 0.00 1.19 0.30 94 1009.5
20260903153522 56 60 3.0 9.0 0.00 1.19 0.30 94 1009.4
20260903153421 56 77 3.0 9.0 0.00 1.19 0.30 94 1009.4
20260903153024 56 95 3.0 13.0 0.00 1.19 0.30 94 1009.3
20260903152927 56 84 2.0 13.0 0.00 1.19 0.30 95 1009.4
20260903152527 56 53 2.0 13.0 0.00 1.19 0.30 94 1009.3
20260903152414 56 249 1.0 13.0 0.00 1.19 0.30 94 1009.3
20260903152015 56 330 1.0 6.0 0.01 1.19 0.30 95 1009.4
20260903151919 56 19 1.0 6.0 0.01 1.19 0.30 94 1009.4
20260903151518 56 198 2.0 9.0 0.01 1.19 0.30 95 1009.2
20260903151422 56 102 2.0 9.0 0.01 1.19 0.30 95 1009.2
20260903151023 56 281 3.0 9.0 0.01 1.19 0.30 95 1009.2
20260903150924 56 323 2.0 9.0 0.01 1.19 0.30 95 1009.3
20260903150527 56 295 2.0 11.0 0.01 1.19 0.30 95 1009.3
20260903150428 56 51 3.0 11.0 0.01 1.19 0.30 95 1009.2
20260903150023 57 290 2.0 11.0 0.01 1.25 0.30 95 1009.3
20260903145924 57 19 3.0 11.0 0.01 1.25 0.30 95 1009.2
20260903145529 57 66 3.0 8.0 0.02 1.25 0.30 95 1009.1
20260903145431 57 125 3.0 8.0 0.02 1.25 0.30 95 1009.1
20260903145015 57 284 2.0 8.0 0.02 1.25 0.30 96 1009.1
20260903144915 57 90 3.0 8.0 0.02 1.25 0.30 96 1009.1
20260903144519 57 65 4.0 8.0 0.03 1.25 0.30 96 1009.1
20260903144421 57 27 4.0 7.0 0.03 1.25 0.30 95 1009.0
20260903144026 57 288 3.0 8.0 0.03 1.25 0.30 95 1009.0
20260903143929 57 4 3.0 9.0 0.03 1.25 0.30 95 1009.2
20260903143518 57 134 3.0 9.0 0.03 1.25 0.30 95 1009.1
20260903143419 57 32 4.0 11.0 0.03 1.25 0.30 95 1009.1
20260903143025 57 70 2.0 12.0 0.03 1.25 0.30 95 1008.9
20260903142925 57 80 3.0 12.0 0.03 1.25 0.30 95 1008.9
20260903142531 57 302 4.0 12.0 0.03 1.25 0.30 95 1009.1
20260903142412 57 94 3.0 8.0 0.03 1.25 0.30 95 1009.1
20260903142018 57 124 3.0 7.0 0.02 1.24 0.29 96 1009.0
20260903141920 57 323 3.0 7.0 0.02 1.24 0.29 96 1009.0
20260903141524 57 327 2.0 6.0 0.02 1.24 0.29 95 1009.2
20260903141425 57 12 1.0 6.0 0.02 1.24 0.29 95 1009.1
20260903141029 57 332 2.0 8.0 0.02 1.24 0.29 95 1009.1
20260903140931 57 150 2.0 8.0 0.02 1.24 0.29 95 1009.0
20260903140519 57 167 2.0 8.0 0.02 1.24 0.29 95 1009.0
20260903140419 57 57 1.0 8.0 0.02 1.24 0.29 96 1009.0
20260903140015 57 333 2.0 8.0 0.02 1.24 0.29 95 1009.1
20260903135918 57 194 2.0 8.0 0.02 1.24 0.29 95 1009.0
20260903135520 56 18 2.0 9.0 0.01 1.23 0.28 95 1009.0
20260903135426 56 35 2.0 9.0 0.01 1.23 0.28 95 1009.0
20260903135027 56 12 1.0 9.0 0.05 1.23 0.28 95 1009.0
20260903134930 56 47 1.0 9.0 0.05 1.23 0.28 95 1009.0
20260903134531 56 68 2.0 10.0 0.07 1.22 0.27 95 1009.0
20260903134416 56 13 2.0 10.0 0.07 1.22 0.27 95 1009.0
20260903134019 56 86 2.0 10.0 0.07 1.22 0.27 95 1008.9
20260903133918 56 151 1.0 8.0 0.07 1.22 0.27 95 1008.9
20260903133523 56 320 2.0 8.0 0.07 1.22 0.27 95 1009.0
20260903133423 56 266 3.0 8.0 0.07 1.22 0.27 95 1009.0
20260903133028 56 96 2.0 10.0 0.07 1.22 0.27 95 1009.0
20260903132930 56 239 2.0 10.0 0.07 1.22 0.27 95 1009.0
20260903132518 56 60 3.0 11.0 0.07 1.22 0.27 95 1009.0
20260903132421 56 281 2.0 11.0 0.07 1.22 0.27 95 1009.0